This demonstration page uses our WeatherBlox Daily Observations layout. Learn more.

Left ArrowRight Arrow

41.55636, -103.73856

Hourly Observations for October 2, 2015

Temp ( °F °C ) Dew Point ( °F °C ) Humidity (%) Winds ( mph kmh ) Pressure ( in mb ) Visibility ( mi km ) Precip ( " mm )
12:53 am 00:53 Cloudy 61 16.1 53 11.7 75 75 ESE 17 28 30.02 1017 10 16.0934 0 0
1:53 am 01:53 Cloudy 60 15.6 50 10 70 70 ESE 21 33 30.03 1017 10 16.0934 0 0
2:53 am 02:53 Cloudy 59 15 47 8.3 64 64 ESE 17 28 30.02 1017 10 16.0934 0 0
3:53 am 03:53 Cloudy 58 14.4 47 8.3 67 67 ESE 17 28 30.01 1016 10 16.0934 0 0
4:43 am 04:43 Cloudy with Nearby Thunderstorms 58 14.4 47 8.3 67 67 ESE 14 22 30 1016 10 16.0934 0 0
4:53 am 04:53 Cloudy with Nearby Thunderstorms 58 14.4 48 8.9 70 70 SE 16 26 30.01 1016 10 16.0934 0 0
5:00 am 05:00 Cloudy 57 14 48 9 72 72 SE 15 24 30.03 1017 10 16.0934 0 0
5:18 am 05:18 Cloudy with Nearby Thunderstorms 57 14 48 9 72 72 SE 16 26 30.03 1017 10 16.0934 0 0
5:33 am 05:33 Cloudy with Thunderstorms 57 13.9 48 8.9 72 72 SE 14 22 30.03 1017 10 16.0934 0 0
5:49 am 05:49 Cloudy with Nearby Thunderstorms 57 14 48 9 72 72 ESE 14 22 30.03 1017 10 16.0934 0 0
5:53 am 05:53 Cloudy with Nearby Thunderstorms 57 13.9 48 8.9 72 72 ESE 17 28 30.02 1017 10 16.0934 0 0
6:31 am 06:31 Cloudy 55 12.8 48 8.9 77 77 ESE 20 31 30 1016 10 16.0934 0 0.0254
6:53 am 06:53 Cloudy 55 12.8 47 8.3 74 74 ESE 21 33 30.02 1017 10 16.0934 0 0.0254
7:53 am 07:53 Cloudy 54 12.2 46 7.8 75 75 E 18 30 30.03 1017 10 16.0934 0 0
8:53 am 08:53 Cloudy with Light Rain 54 12.2 46 7.8 75 75 ESE 21 33 30.02 1017 10 16.0934 0 0.0254
9:14 am 09:14 Windy with Storms Likely 54 12 46 8 77 77 ESE 24 39 30 1016 10 16.0934 0 0
9:35 am 09:35 Cloudy with Nearby Thunderstorms 52 11.1 47 8.3 83 83 ESE 26 43 30 1016 8 12.87472 0.01 0.254
9:51 am 09:51 Cloudy with Light Rain 52 11 46 8 82 82 ESE 24 39 30 1016 10 16.0934 0.02 0.508
9:53 am 09:53 Cloudy with Light Rain 52 11.1 47 8.3 83 83 E 22 35 29.99 1016 10 16.0934 0.02 0.508
10:53 am 10:53 Cloudy 55 12.8 46 7.8 72 72 SE 25 41 29.99 1016 10 16.0934 0 0.0254
11:53 am 11:53 Cloudy 54 12.2 45 7.2 72 72 ESE 22 35 29.98 1015 10 16.0934 0 0
12:53 pm 12:53 Cloudy 54 12.2 46 7.8 75 75 SE 20 31 29.97 1015 10 16.0934 0 0
1:53 pm 13:53 Cloudy 54 12.2 45 7.2 72 72 SE 18 30 29.94 1014 10 16.0934 0 0
2:53 pm 14:53 Cloudy 53 11.7 44 6.7 72 72 SE 24 39 29.92 1013 10 16.0934 0 0
3:53 pm 15:53 Cloudy 53 11.7 44 6.7 72 72 SE 22 35 29.91 1013 10 16.0934 0 0
4:53 pm 16:53 Cloudy 53 11.7 43 6.1 69 69 SE 22 35 29.89 1012 10 16.0934 0 0
5:53 pm 17:53 Cloudy 53 11.7 41 5 64 64 SE 25 41 29.89 1012 10 16.0934 0 0
6:53 pm 18:53 Cloudy 53 11.7 41 5 64 64 ESE 17 28 29.89 1012 10 16.0934 0 0
7:24 pm 19:24 Cloudy with Nearby Thunderstorms 54 12 39 4 58 58 S 13 20 29.94 1014 10 16.0934 0 0
7:36 pm 19:36 Cloudy with Thunderstorms 54 12 39 4 58 58 SE 10 17 29.94 1014 10 16.0934 0 0
7:53 pm 19:53 Cloudy with Light Thunderstorms 53 11.7 42 5.6 66 66 SE 10 17 29.98 1015 10 16.0934 0 0.0254
8:11 pm 20:11 Cloudy with Nearby Thunderstorms 51 10.6 43 6.1 74 74 ESE 14 22 29.94 1014 10 16.0934 0.01 0.254

Powered by AerisWeather